Hailey, ID

11:49 AM MDT on May 21, 2018 (GMT -0600)
Friedman Memorial

Weather History for KSUN - March, 2013

Change the Weather History Date:

Friday, March 8, 2013

  Actual Average Record
Temperature  
Mean Temperature 32 °F -  
Max Temperature 39 °F 41 °F 55 °F (2015)
Min Temperature 24 °F 20 °F 12 °F (2002)
Degree Days  
Heating Degree Days 34    
Moisture  
Dew Point 22 °F    
Average Humidity 74    
Maximum Humidity 93    
Minimum Humidity 55    
Precipitation  
Precipitation 0.00 in - - ()
Sea Level Pressure  
Sea Level Pressure 29.88 in    
Wind  
Wind Speed 10 mph (NW)    
Max Wind Speed 20 mph    
Max Gust Speed -    
Visibility 9 miles    
Events Snow    
Averages and records for this station are not official NWS values.
T = Trace of Precipitation, MM = Missing Value Source: NWS Daily Summary

Daily Weather History Graph

Daily Weather History Graph

Search for Another Location

Airport or City:

Astronomy

Mar. 08, 2013 Rise Set
Actual Time 7:01 AM MST 6:35 PM MST
Civil Twilight 6:32 AM MST 7:03 PM MST
Nautical Twilight 5:59 AM MST 7:37 PM MST
Astronomical Twilight 5:26 AM MST 8:10 PM MST
Moon 4:53 AM MST (3/8) 3:30 PM MST (3/8)
Length of Visible Light 12h 31m
Length of Day
11h 34m
Waning Crescent, 11% of the Moon is Illuminated
Mar 8
Waning Crescent
Mar 11
New
Mar 19
First Quarter
Mar 27
Full
Apr 2
Last Quarter

Hourly Weather History & Observations

Time (MST) Temp. Windchill Dew Point Humidity Pressure Visibility Wind Dir Wind Speed Gust Speed Precip Events Conditions
12:15 AM 28.4 °F 19.7 °F 19.4 °F 69% 29.93 in 10.0 mi NNW 9.2 mph - N/A   Clear
12:55 AM 26.6 °F 15.7 °F 19.4 °F 74% 29.92 in 10.0 mi NNW 12.7 mph - N/A   Clear
1:15 AM 26.6 °F 16.2 °F 19.4 °F 74% 29.92 in 10.0 mi NNW 11.5 mph - N/A   Clear
1:35 AM 26.6 °F 15.2 °F 17.6 °F 69% 29.92 in 10.0 mi NNW 13.8 mph - N/A   Clear
1:55 AM 26.6 °F 16.2 °F 17.6 °F 69% 29.92 in 10.0 mi NW 11.5 mph - N/A   Clear
2:15 AM 26.6 °F 15.2 °F 17.6 °F 69% 29.91 in 10.0 mi NW 13.8 mph - N/A   Clear
2:55 AM 24.8 °F 13.4 °F 15.8 °F 69% 29.90 in 10.0 mi NNW 12.7 mph - N/A   Overcast
3:15 AM 26.6 °F 14.3 °F 15.8 °F 64% 29.90 in 10.0 mi NW 16.1 mph - N/A   Overcast
3:35 AM 24.8 °F 10.7 °F 15.8 °F 69% 29.88 in 10.0 mi NNW 19.6 mph - N/A   Overcast
3:55 AM 24.8 °F 11.9 °F 15.8 °F 69% 29.88 in 10.0 mi NW 16.1 mph - N/A   Mostly Cloudy
4:15 AM 24.8 °F 12.4 °F 15.8 °F 69% 29.87 in 10.0 mi NW 15.0 mph - N/A   Mostly Cloudy
4:55 AM 26.6 °F 15.2 °F 15.8 °F 64% 29.88 in 10.0 mi NW 13.8 mph - N/A   Overcast
5:15 AM 24.8 °F 14.0 °F 14.0 °F 64% 29.88 in 10.0 mi NW 11.5 mph - N/A   Overcast
5:35 AM 24.8 °F 13.4 °F 14.0 °F 64% 29.88 in 10.0 mi NW 12.7 mph - N/A   Overcast
5:55 AM 26.6 °F 16.8 °F 15.8 °F 64% 29.88 in 10.0 mi NW 10.4 mph - N/A   Overcast
6:47 AM 24.8 °F 15.3 °F 15.8 °F 69% 29.87 in 10.0 mi WNW 9.2 mph - N/A   Overcast
7:50 AM 26.6 °F 17.5 °F 15.8 °F 64% 29.87 in 10.0 mi NW 9.2 mph - N/A   Overcast
8:47 AM 28.4 °F 19.7 °F 15.8 °F 59% 29.87 in 10.0 mi WNW 9.2 mph - N/A   Overcast
9:22 AM 28.4 °F 19.7 °F 17.6 °F 64% 29.87 in 4.0 mi WNW 9.2 mph - N/A   Haze
9:48 AM 30.2 °F 21.9 °F 17.6 °F 60% 29.87 in 4.0 mi NW 9.2 mph - N/A   Haze
10:47 AM 24.8 °F 19.1 °F 23.0 °F 93% 29.87 in 3.0 mi NW 4.6 mph - N/A Snow Light Snow
11:02 AM 32.0 °F 27.5 °F 17.6 °F 55% 29.87 in 2.0 mi WNW 4.6 mph - N/A Snow Light Snow
11:47 AM 32.0 °F - 28.4 °F 87% 29.86 in 7.0 mi Calm Calm - N/A   Mostly Cloudy
12:55 PM 37.4 °F 33.8 °F 30.2 °F 75% 29.84 in 10.0 mi SE 4.6 mph - N/A   Mostly Cloudy
1:47 PM 37.4 °F 31.4 °F 30.2 °F 75% 29.83 in 10.0 mi ESE 8.1 mph - N/A   Mostly Cloudy
2:55 PM 37.4 °F 30.3 °F 32.0 °F 81% 29.82 in 10.0 mi ESE 10.4 mph - N/A   Mostly Cloudy
3:50 PM 39.2 °F 34.2 °F 32.0 °F 75% 29.83 in 10.0 mi ESE 6.9 mph - N/A   Mostly Cloudy
4:47 PM 39.2 °F - 30.2 °F 70% 29.81 in 10.0 mi Calm Calm - N/A   Scattered Clouds
5:47 PM 37.4 °F 30.8 °F 32.0 °F 81% 29.82 in 10.0 mi ESE 9.2 mph - N/A   Mostly Cloudy
6:47 PM 35.6 °F 31.7 °F 30.2 °F 81% 29.84 in 10.0 mi ESE 4.6 mph - N/A   Scattered Clouds
7:47 PM 33.8 °F - 30.2 °F 87% 29.85 in 10.0 mi Calm Calm - N/A   Mostly Cloudy
8:47 PM 32.0 °F 27.5 °F 28.4 °F 87% 29.87 in 10.0 mi NW 4.6 mph - N/A   Scattered Clouds
9:47 PM 30.2 °F 23.4 °F 26.6 °F 86% 29.87 in 10.0 mi WNW 6.9 mph - N/A   Clear
10:15 PM 32.0 °F 25.6 °F 28.4 °F 87% 29.88 in 10.0 mi NW 6.9 mph - N/A   Clear
10:35 PM 32.0 °F 24.8 °F 28.4 °F 87% 29.88 in 10.0 mi WNW 8.1 mph - N/A   Clear
10:47 PM 30.2 °F 23.4 °F 26.6 °F 86% 29.89 in 10.0 mi WNW 6.9 mph - N/A   Clear
10:55 PM 30.2 °F 24.3 °F 28.4 °F 93% 29.89 in 10.0 mi NW 5.8 mph - N/A   Clear
11:15 PM 30.2 °F 21.9 °F 26.6 °F 86% 29.89 in 10.0 mi NW 9.2 mph - N/A   Clear
11:35 PM 30.2 °F 22.6 °F 26.6 °F 86% 29.89 in 10.0 mi NW 8.1 mph - N/A   Clear
11:55 PM 30.2 °F 22.6 °F 26.6 °F 86% 29.89 in 10.0 mi NW 8.1 mph - N/A   Clear